Weather in Moena

Italy     46°22′33″N   11°39′30″E
temp.,
°C
wind,
m/s
gust,
m/s
humid.,
%
clouds,
%
prec.,
mm/h
press.,
hPa
HPBL,
m
13 april, tue
tue1323:00−7n3497100 3.9 1023389
02:00−7n3497100 7.9 1023375
05:00−9n3497100 4.6 1025340
08:00−9n3496100 5.9 1026318
11:00−6n3492100 0.4 1025667
14:00−4n3385100 0.7 10231022
17:00−4n2388100 0.3 1023763
20:00−8nne2296100 0.3 102635
14 april, wed
wed1423:00−13ne219726 0.0 103217
02:00−15ene219616 0.0 103314
05:00−16ene219615 0.0 103314
08:00−10ne12915 0.0 102957
11:00−4n11785 0.0 1025779
14:00−2nnw117788 0.1 10221174
17:00−2nw117596 0.6 1020958
20:00−7ene0096100 1.4 102410
15 april, thu
thu1523:00−7nne119897 0.9 102546
02:00−11e1197100 1.4 102816
05:00−11ene1194100 0.0 102720
08:00−8ne1294100 0.3 1025186
11:00−4n1188100 0.5 1023784
14:00−2nnw1284100 2.0 1021834
17:00−3nw1183100 2.6 1020596
20:00−5e1197100 4.9 102239
16 april, fri
fri1623:00−8ese119887 1.3 102521
02:00−7se1198100 2.8 102449
05:00−11ese119963 0.6 102510
08:00−7nne009618 0.6 102356
11:00−2nw118598 0.0 1020866
14:000nw118380 0.4 1017983
17:000s018090 0.9 1016730
20:00−6se119699 1.7 102110
17 april, sat
sat1723:00−6ene119994 0.3 102225
02:00−9ese119848 0.4 102311
05:00−10e119835 0.0 102312
08:00−5ne11945 0.0 101958
11:00−1n118532 0.0 1016830
14:00+1ene127979 0.3 10141042
17:00+1ne0180100 0.8 1013677
20:00−4ne1197100 1.6 101611